EW6999 Weather Reports


Display with metric or nautical units.
time (UTC)temp
F
wind
direction
speed
MPH
gust
MPH
rain 1hr
in
rain 24hr
in
rain mn
in
humidity
%
barometer
mb
20260504221900 73 239 0.0 6.0 0.00 0.00 0.00 33 1007.4
20260504220336 73 329 1.0 4.0 0.00 0.00 0.00 31 1007.4
20260504214827 73 140 1.0 6.0 0.00 0.00 0.00 32 1007.5
20260504213340 73 355 2.0 4.0 0.00 0.00 0.00 32 1007.5
20260504211857 74 97 0.0 3.0 0.00 0.00 0.00 34 1007.6
20260504210327 73 184 0.0 4.0 0.00 0.00 0.00 32 1007.5
20260504204902 73 359 3.0 8.0 0.00 0.00 0.00 32 1007.6
20260504203331 73 226 2.0 11.0 0.00 0.00 0.00 31 1007.6
20260504201824 73 315 1.0 7.0 0.00 0.00 0.00 31 1007.6
20260504200342 73 146 2.0 8.0 0.00 0.00 0.00 31 1007.6
20260504194830 73 78 2.0 5.0 0.00 0.00 0.00 33 1007.8
20260504193347 73 50 0.0 7.0 0.00 0.00 0.00 33 1007.9
20260504191838 73 200 2.0 6.0 0.00 0.00 0.00 33 1008.2
20260504190329 72 257 2.0 8.0 0.00 0.00 0.00 34 1008.5
20260504184825 73 238 1.0 5.0 0.00 0.00 0.00 35 1008.6
20260504183337 72 99 1.0 8.0 0.00 0.00 0.00 35 1008.8
20260504181831 73 221 1.0 8.0 0.00 0.00 0.00 34 1009.0
20260504180323 73 185 2.0 6.0 0.00 0.00 0.00 33 1009.3
20260504174900 73 242 2.0 7.0 0.00 0.00 0.00 33 1009.4
20260504173331 73 242 0.0 7.0 0.00 0.00 0.00 34 1009.6
20260504171842 72 206 2.0 9.0 0.00 0.00 0.00 35 1009.8
20260504170337 73 281 1.0 5.0 0.00 0.00 0.00 34 1010.0
20260504160333 71 112 2.0 8.0 0.00 0.00 0.00 36 1010.7
20260504150326 71 257 1.0 4.0 0.00 0.00 0.00 39 1011.3
20260504140336 68 357 1.0 5.0 0.00 0.00 0.00 41 1011.6
20260504130332 65 198 1.0 4.0 0.00 0.00 0.00 46 1012.2
20260504110341 49 194 0.0 4.0 0.00 0.00 0.00 71 1012.7
20260504100337 45 94 0.0 2.0 0.00 0.00 0.00 72 1012.6
20260504081833 43 232 0.0 0.0 0.00 0.00 0.00 70 1012.2
20260504080325 43 232 0.0 0.0 0.00 0.00 0.00 71 1012.3
20260504070341 44 193 0.0 0.0 0.00 0.00 0.00 67 1012.1
20260504050333 45 157 0.0 0.0 0.00 0.00 0.00 64 1011.8
20260504044824 44 157 0.0 0.0 0.00 0.00 0.00 64 1011.7
20260504043337 44 157 0.0 0.0 0.00 0.00 0.00 64 1011.6
20260504041832 44 157 0.0 0.0 0.00 0.00 0.00 64 1011.4
20260504040325 44 230 0.0 0.0 0.00 0.00 0.00 64 1011.4
20260504034842 44 230 0.0 0.0 0.00 0.00 0.00 63 1011.2
20260504033333 45 230 0.0 0.0 0.00 0.00 0.00 61 1011.2
20260504031827 45 230 0.0 0.0 0.00 0.00 0.00 61 1011.0
20260504030340 45 230 0.0 0.0 0.00 0.00 0.00 60 1011.1
20260504024828 45 210 0.0 0.0 0.00 0.00 0.00 59 1011.0
20260504023325 45 210 0.0 0.0 0.00 0.00 0.00 59 1011.1
20260504021857 46 210 0.0 0.0 0.00 0.00 0.00 58 1011.0
20260504020351 45 210 0.0 0.0 0.00 0.00 0.00 58 1011.0
20260504014843 45 210 0.0 0.0 0.00 0.00 0.00 58 1010.9
20260504013356 45 210 0.0 0.0 0.00 0.00 0.00 58 1010.8
20260504011850 46 210 0.0 0.0 0.00 0.00 0.00 55 1010.7
20260504010341 47 210 0.0 0.0 0.00 0.00 0.00 53 1010.5
20260504004838 49 210 0.0 0.0 0.00 0.00 0.00 50 1010.3
20260504003328 50 210 0.0 0.0 0.00 0.00 0.00 46 1010.1
20260504001824 52 210 0.0 0.0 0.00 0.00 0.00 43 1009.8
20260504000336 54 210 0.0 0.0 0.00 0.00 0.00 39 1009.7
20260503234827 56 210 0.0 2.0 0.00 0.00 0.00 36 1009.5
20260503233341 57 218 1.0 3.0 0.00 0.00 0.00 34 1009.5
20260503231830 58 218 0.0 5.0 0.00 0.00 0.00 33 1009.4
20260503230345 59 133 1.0 4.0 0.00 0.00 0.00 32 1009.2
20260503224855 61 194 1.0 5.0 0.00 0.00 0.00 30 1009.2
20260503223326 61 218 0.0 5.0 0.00 0.00 0.00 30 1009.0